This is the latest recevied weather packets stored in our database for station/object KD7AWQ. If no packets are shown the sender has not sent any weather packets the latest 10 day(s).
| Time | Temp. | Humidity | Pressure | Rain* | Wind** | Luminosity | Snow |
|---|---|---|---|---|---|---|---|
| 1777706815 | 16.67° C | 44% | 1185 hPa | 0 mm | - | 0 W/m² | - |
| 1777706512 | 16.67° C | 43% | 1184.9 hPa | 0 mm | - | 0 W/m² | - |
| 1777706210 | 16.67° C | 42% | 1184.6 hPa | 0 mm | - | 0 W/m² | - |
| 1777705907 | 16.67° C | 41% | 1184.6 hPa | 0 mm | - | 0 W/m² | - |
| 1777705606 | 17.22° C | 39% | 1184.6 hPa | 0 mm | - | 0 W/m² | - |
| 1777705303 | 17.22° C | 39% | 1184.9 hPa | 0 mm | - | 0 W/m² | - |
| 1777705001 | 17.22° C | 35% | 1184.8 hPa | 0 mm | - | 0 W/m² | - |
| 1777704698 | 17.78° C | 32% | 1184.7 hPa | 0 mm | - | 0 W/m² | - |
| 1777704398 | 17.78° C | 30% | 1184.6 hPa | 0 mm | - | 0 W/m² | - |
| 1777704094 | 17.78° C | 30% | 1184.7 hPa | 0 mm | - | 0 W/m² | - |
| 1777703792 | 17.78° C | 30% | 1184.6 hPa | 0 mm | - | 0 W/m² | - |
| 1777703489 | 18.33° C | 30% | 1184.4 hPa | 0 mm | - | 0 W/m² | - |
| 1777703186 | 18.33° C | 31% | 1184.6 hPa | 0 mm | - | 0 W/m² | - |
| 1777702884 | 18.33° C | 31% | 1184.4 hPa | 0 mm | - | 0 W/m² | - |
| 1777702582 | 18.89° C | 30% | 1184.7 hPa | 0 mm | - | 0 W/m² | - |
| 1777702279 | 18.33° C | 30% | 1184.6 hPa | 0 mm | - | 0 W/m² | - |
| 1777701979 | 18.89° C | 28% | 1184.3 hPa | 0 mm | - | 0 W/m² | - |
| 1777701676 | 18.89° C | 27% | 1184.4 hPa | 0 mm | - | 0 W/m² | - |
| 1777701374 | 19.44° C | 26% | 1184 hPa | 0 mm | - | 0 W/m² | - |
| 1777701072 | 20° C | 22% | 1184 hPa | 0 mm | - | 0 W/m² | - |
| 1777700771 | 20.56° C | 21% | 1183.8 hPa | 0 mm | - | 0 W/m² | - |
| 1777700467 | 20.56° C | 21% | 1183.7 hPa | 0 mm | - | 0 W/m² | - |
| 1777700164 | 20° C | 21% | 1183.5 hPa | 0 mm | - | 0 W/m² | - |
| 1777699862 | 20.56° C | 21% | 1183.5 hPa | 0 mm | - | 0 W/m² | - |
| 1777699560 | 20° C | 22% | 1183.5 hPa | 0 mm | - | 0 W/m² | - |
* Rain latest hour (hover to see other rain measurements)
** Current wind speed in m/s (hover to see current wind gust speed)